This is the latest recevied weather packets stored in our database for station/object OK3MS-5. If no packets are shown the sender has not sent any weather packets the latest 1 day(s).
| Time | Temp. | Humidity | Pressure | Rain* | Wind** | Luminosity | Snow |
|---|---|---|---|---|---|---|---|
| 1777957205 | 11.67° C | 75% | 1008.6 hPa | 0 mm | 0 m/s | 40 W/m² | - |
| 1777956904 | 11.11° C | 72% | 1008.8 hPa | 0 mm | 0 m/s | 40 W/m² | - |
| 1777956604 | 10.56° C | 74% | 1008.8 hPa | 0 mm | 0 m/s | 39 W/m² | - |
| 1777956303 | 10.56° C | 76% | 1008.8 hPa | 0 mm | 0 m/s | 35 W/m² | - |
| 1777956002 | 10.56° C | 75% | 1008.8 hPa | 0 mm | 0 m/s | 32 W/m² | - |
| 1777955704 | 10° C | 76% | 1008.9 hPa | 0 mm | 0 m/s | 28 W/m² | - |
| 1777955402 | 9.44° C | 79% | 1009.1 hPa | 0 mm | 0 m/s | 25 W/m² | - |
| 1777955106 | 9.44° C | 81% | 1009.1 hPa | 0 mm | 0 m/s | 24 W/m² | - |
| 1777954808 | 9.44° C | 80% | 1009.2 hPa | 0 mm | 0 m/s | 22 W/m² | - |
| 1777954503 | 9.44° C | 79% | 1009.2 hPa | 0 mm | 0 m/s | 20 W/m² | - |
| 1777954208 | 9.44° C | 79% | 1009.1 hPa | 0 mm | 0 m/s | 19 W/m² | - |
| 1777953903 | 9.44° C | 78% | 1009 hPa | 0 mm | 0 m/s | 16 W/m² | - |
| 1777953603 | 9.44° C | 78% | 1009.2 hPa | 0 mm | 0 m/s | 13 W/m² | - |
| 1777953310 | 9.44° C | 79% | 1009.2 hPa | 0 mm | 0 m/s | 10 W/m² | - |
| 1777953003 | 9.44° C | 81% | 1009.1 hPa | 0 mm | 0 m/s | 7 W/m² | - |
| 1777952704 | 9.44° C | 79% | 1009.1 hPa | 0 mm | 0 m/s | 5 W/m² | - |
| 1777952403 | 9.44° C | 79% | 1009 hPa | 0 mm | 0 m/s | 4 W/m² | - |
| 1777952104 | 10° C | 80% | 1009.1 hPa | 0 mm | 0 m/s | 3 W/m² | - |
| 1777951803 | 10° C | 75% | 1008.9 hPa | 0 mm | 0 m/s | 2 W/m² | - |
| 1777951503 | 10° C | 75% | 1009 hPa | 0 mm | 0 m/s | 1 W/m² | - |
| 1777951205 | 10° C | 75% | 1009.1 hPa | 0 mm | 0 m/s | 1 W/m² | - |
| 1777950903 | 10.56° C | 75% | 1009 hPa | 0 mm | 0 m/s | 0 W/m² | - |
| 1777950603 | 10.56° C | 74% | 1008.8 hPa | 0 mm | 0 m/s | 0 W/m² | - |
| 1777950004 | 11.11° C | 72% | 1008.8 hPa | 0 mm | 0 m/s | 0 W/m² | - |
| 1777949708 | 11.11° C | 71% | 1008.7 hPa | 0 mm | 0 m/s | 0 W/m² | - |
* Rain latest hour (hover to see other rain measurements)
** Current wind speed in m/s (hover to see current wind gust speed)